Claxton, GA

4:41 AM EST on December 04, 2016 (GMT -0500)
Claxton-Evans County

Weather History for KCWV - March, 2013

Change the Weather History Date:

Friday, March 8, 2013

  Actual Average (KLHW) Record (KLHW)
Temperature  
Mean Temperature 48 °F -  
Max Temperature 64 °F 69 °F 87 °F (1974)
Min Temperature 33 °F 46 °F 32 °F (1971)
Degree Days  
Heating Degree Days 16    
Moisture  
Dew Point 35 °F    
Average Humidity 69    
Maximum Humidity 100    
Minimum Humidity 32    
Precipitation  
Precipitation 0.00 in - - ()
Sea Level Pressure  
Sea Level Pressure 30.24 in    
Wind  
Wind Speed 3 mph (NNE)    
Max Wind Speed 13 mph    
Max Gust Speed 18 mph    
Visibility 9 miles    
Events      
Averages and records for this station are not official NWS values.
T = Trace of Precipitation, MM = Missing Value Source: NWS Daily Summary

Daily Weather History Graph

Daily Weather History Graph

Search for Another Location

Airport or City:

Trip Planner

Search our weather history database for the weather conditions in past years. The results will help you decide how hot, cold, wet, or windy it might be!

Date:

Astronomy

Mar. 08, 2013 Rise Set
Actual Time 6:46 AM EST 6:30 PM EST
Civil Twilight 6:21 AM EST 6:55 PM EST
Nautical Twilight 5:53 AM EST 7:23 PM EST
Astronomical Twilight 5:24 AM EST 7:51 PM EST
Moon 4:20 AM EST (3/8) 3:32 PM EST (3/8)
Length of Visible Light 12h 33m
Length of Day
11h 44m
Waning Crescent, 12% of the Moon is Illuminated
Mar 8
Waning Crescent
Mar 11
New
Mar 19
First Quarter
Mar 27
Full
Apr 3
Last Quarter

Hourly Weather History & Observations

Time (EST) Temp. Windchill Dew Point Humidity Pressure Visibility Wind Dir Wind Speed Gust Speed Precip Events Conditions
12:15 AM 37.4 °F - 37.4 °F 100% 30.21 in 7.0 mi Calm Calm - N/A   Clear
12:35 AM 37.4 °F - 37.4 °F 100% 30.20 in 7.0 mi Calm Calm - N/A   Clear
12:55 AM 37.4 °F - 37.4 °F 100% 30.20 in 7.0 mi Calm Calm - N/A   Clear
1:15 AM 37.4 °F - 37.4 °F 100% 30.20 in 7.0 mi Calm Calm - N/A   Clear
1:35 AM 35.6 °F - 35.6 °F 100% 30.21 in 7.0 mi Calm Calm - N/A   Clear
1:55 AM 37.4 °F - 37.4 °F 100% 30.21 in 7.0 mi Calm Calm - N/A   Clear
2:15 AM 35.6 °F - 35.6 °F 100% 30.21 in 7.0 mi Calm Calm - N/A   Clear
2:35 AM 35.6 °F - 35.6 °F 100% 30.20 in 7.0 mi Calm Calm - N/A   Clear
2:55 AM 35.6 °F - 35.6 °F 100% 30.20 in 7.0 mi Calm Calm - N/A   Clear
3:15 AM 35.6 °F - 35.6 °F 100% 30.20 in 5.0 mi Calm Calm - N/A   Clear
3:35 AM 35.6 °F - 35.6 °F 100% 30.19 in 5.0 mi Calm Calm - N/A   Clear
3:55 AM 35.6 °F - 35.6 °F 100% 30.20 in 7.0 mi Calm Calm - N/A   Clear
4:15 AM 35.6 °F - 35.6 °F 100% 30.20 in 7.0 mi Calm Calm - N/A   Clear
4:35 AM 33.8 °F - 33.8 °F 100% 30.20 in 7.0 mi Calm Calm - N/A   Clear
4:55 AM 35.6 °F - 35.6 °F 100% 30.22 in 7.0 mi Calm Calm - N/A   Clear
5:15 AM 37.4 °F 31.4 °F 37.4 °F 100% 30.23 in 10.0 mi ENE 8.1 mph - N/A   Clear
5:35 AM 41.0 °F 35.2 °F 35.6 °F 81% 30.23 in 10.0 mi ENE 9.2 mph - N/A   Clear
5:55 AM 41.0 °F 35.2 °F 33.8 °F 76% 30.24 in 10.0 mi ENE 9.2 mph - N/A   Clear
6:15 AM 41.0 °F 35.2 °F 33.8 °F 76% 30.25 in 10.0 mi ENE 9.2 mph - N/A   Clear
6:35 AM 41.0 °F 36.4 °F 33.8 °F 76% 30.25 in 10.0 mi ENE 6.9 mph - N/A   Clear
7:15 AM 39.2 °F 34.2 °F 33.8 °F 81% 30.26 in 10.0 mi ENE 6.9 mph - N/A   Clear
7:35 AM 41.0 °F 36.4 °F 33.8 °F 76% 30.26 in 10.0 mi ENE 6.9 mph - N/A   Clear
7:55 AM 41.0 °F 36.4 °F 33.8 °F 76% 30.27 in 10.0 mi ENE 6.9 mph - N/A   Clear
8:15 AM 42.8 °F 36.6 °F 32.0 °F 66% 30.29 in 10.0 mi ENE 11.5 mph 17.3 mph N/A   Clear
8:35 AM 42.8 °F 36.2 °F 32.0 °F 66% 30.29 in 10.0 mi ENE 12.7 mph 18.4 mph N/A   Clear
8:55 AM 44.6 °F 38.4 °F 32.0 °F 61% 30.28 in 10.0 mi ENE 12.7 mph 17.3 mph N/A   Clear
9:15 AM 44.6 °F 39.2 °F 32.0 °F 61% 30.29 in 10.0 mi NE 10.4 mph - N/A   Clear
9:35 AM 46.4 °F 41.1 °F 32.0 °F 57% 30.29 in 10.0 mi NE 11.5 mph - N/A   Clear
9:55 AM 48.2 °F - 32.0 °F 54% 30.29 in 10.0 mi ENE 8.1 mph - N/A   Clear
10:15 AM 50.0 °F - 32.0 °F 50% 30.29 in 10.0 mi NE 9.2 mph - N/A   Clear
10:35 AM 50.0 °F - 32.0 °F 50% 30.29 in 10.0 mi NE 6.9 mph - N/A   Clear
10:55 AM 51.8 °F - 32.0 °F 47% 30.29 in 10.0 mi Calm Calm - N/A   Clear
11:15 AM 53.6 °F - 32.0 °F 44% 30.29 in 10.0 mi NE 3.5 mph - N/A   Clear
11:35 AM 53.6 °F - 32.0 °F 44% 30.29 in 10.0 mi East 3.5 mph - N/A   Clear
11:55 AM 55.4 °F - 32.0 °F 41% 30.30 in 10.0 mi North 3.5 mph - N/A   Clear
12:15 PM 55.4 °F - 32.0 °F 41% 30.29 in 10.0 mi NNW 3.5 mph - N/A   Clear
12:35 PM 57.2 °F - 33.8 °F 41% 30.29 in 10.0 mi ENE 3.5 mph - N/A   Clear
1:15 PM 59.0 °F - 33.8 °F 39% 30.28 in 10.0 mi West 5.8 mph - N/A   Clear
1:35 PM 60.8 °F - 33.8 °F 36% 30.27 in 10.0 mi NNW 6.9 mph - N/A   Clear
1:55 PM 60.8 °F - 33.8 °F 36% 30.25 in 10.0 mi NNW 5.8 mph - N/A   Clear
2:15 PM 60.8 °F - 33.8 °F 36% 30.24 in 10.0 mi NW 4.6 mph - N/A   Clear
2:35 PM 62.6 °F - 33.8 °F 34% 30.23 in 10.0 mi NW 9.2 mph - N/A   Clear
3:15 PM 62.6 °F - 33.8 °F 34% 30.21 in 10.0 mi NW 3.5 mph - N/A   Clear
3:35 PM 64.4 °F - 33.8 °F 32% 30.20 in 10.0 mi NNW 6.9 mph - N/A   Clear
3:55 PM 62.6 °F - 33.8 °F 34% 30.19 in 10.0 mi NW 8.1 mph - N/A   Clear
4:15 PM 62.6 °F - 33.8 °F 34% 30.19 in 10.0 mi NNW 6.9 mph - N/A   Clear
4:35 PM 62.6 °F - 33.8 °F 34% 30.19 in 10.0 mi NW 6.9 mph - N/A   Clear
4:55 PM 62.6 °F - 33.8 °F 34% 30.18 in 10.0 mi Calm Calm - N/A   Clear
5:15 PM 62.6 °F - 32.0 °F 32% 30.19 in 10.0 mi NNW 6.9 mph - N/A   Clear
5:35 PM 62.6 °F - 32.0 °F 32% 30.19 in 10.0 mi NW 4.6 mph - N/A   Clear
5:55 PM 62.6 °F - 33.8 °F 34% 30.19 in 10.0 mi NNW 3.5 mph - N/A   Clear
6:15 PM 60.8 °F - 33.8 °F 36% 30.20 in 10.0 mi NW 4.6 mph - N/A   Clear
6:35 PM 60.8 °F - 33.8 °F 36% 30.21 in 10.0 mi NNW 3.5 mph - N/A   Clear
6:55 PM 53.6 °F - 41.0 °F 62% 30.21 in 10.0 mi Calm Calm - N/A   Clear
7:15 PM 51.8 °F - 41.0 °F 67% 30.23 in 10.0 mi Calm Calm - N/A   Clear
7:35 PM 50.0 °F - 39.2 °F 66% 30.24 in 10.0 mi Calm Calm - N/A   Clear
7:55 PM 48.2 °F - 42.8 °F 82% 30.24 in 10.0 mi Calm Calm - N/A   Clear
8:15 PM 46.4 °F - 41.0 °F 81% 30.25 in 10.0 mi Calm Calm - N/A   Clear
8:35 PM 44.6 °F - 41.0 °F 87% 30.25 in 10.0 mi Calm Calm - N/A   Clear
8:55 PM 44.6 °F - 41.0 °F 87% 30.25 in 10.0 mi Calm Calm - N/A   Clear
9:15 PM 44.6 °F - 41.0 °F 87% 30.25 in 10.0 mi Calm Calm - N/A   Clear
9:35 PM 42.8 °F - 41.0 °F 93% 30.26 in 10.0 mi Calm Calm - N/A   Clear
9:55 PM 42.8 °F - 39.2 °F 87% 30.26 in 10.0 mi Calm Calm - N/A   Clear
10:15 PM 42.8 °F - 39.2 °F 87% 30.26 in 10.0 mi Calm Calm - N/A   Clear
10:35 PM 41.0 °F - 39.2 °F 93% 30.26 in 10.0 mi Calm Calm - N/A   Clear
10:55 PM 41.0 °F - 37.4 °F 87% 30.27 in 10.0 mi Calm Calm - N/A   Clear
11:15 PM 41.0 °F - 37.4 °F 87% 30.27 in 10.0 mi Calm Calm - N/A   Clear
11:35 PM 39.2 °F - 37.4 °F 93% 30.27 in 10.0 mi Calm Calm - N/A   Clear
11:55 PM 37.4 °F - 37.4 °F 100% 30.26 in 10.0 mi Calm Calm - N/A   Clear